Miyazaki Airport, Japan

4:01 PM JST on June 28, 2017 (GMT +0900)
Miyazaki

Weather History for RJFM - June, 2013

Change the Weather History Date:

Wednesday, June 19, 2013

  Actual Average Record
Temperature  
Mean Temperature 88 °F -  
Max Temperature 93 °F 85 °F 93 °F (2013)
Min Temperature 82 °F 71 °F 42 °F (1998)
Cooling Degree Days 22    
Growing Degree Days 38 (Base 50)    
Moisture  
Dew Point 70 °F    
Average Humidity 55    
Maximum Humidity 70    
Minimum Humidity 46    
Precipitation  
Precipitation 0.00 in 0.42 in - ()
Sea Level Pressure  
Sea Level Pressure 29.63 in    
Wind  
Wind Speed 14 mph ()    
Max Wind Speed 22 mph    
Max Gust Speed 36 mph    
Visibility 6.2 miles    
Events Rain    
Averages and records for this station are not official NWS values.
T = Trace of Precipitation, MM = Missing Value Source: Averaged Metar Reports

Daily Weather History Graph

Daily Weather History Graph

Search for Another Location

Airport or City:

Trip Planner

Search our weather history database for the weather conditions in past years. The results will help you decide how hot, cold, wet, or windy it might be!

Date:

Astronomy

Jun. 19, 2013 Rise Set
Actual Time 5:08 AM JST 7:22 PM JST
Civil Twilight 4:40 AM JST 7:50 PM JST
Nautical Twilight 4:05 AM JST 8:25 PM JST
Astronomical Twilight 3:28 AM JST 9:02 PM JST
Moon 2:44 PM JST (6/19) 1:16 AM JST (6/19)
Length of Visible Light 15h 10m
Length of Day
14h 14m
Waxing Gibbous, 75% of the Moon is Illuminated
Jun 19
Waxing Gibbous
Jun 23
Full
Jun 30
Last Quarter
Jul 8
New
Jul 16
First Quarter

Hourly Weather History & Observations

Time (JST) Temp. Heat Index Dew Point Humidity Pressure Visibility Wind Dir Wind Speed Gust Speed Precip Events Conditions
6:10 AM 82.4 °F 87.2 °F 71.6 °F 70% 29.62 in 6.2 mi West 16.1 mph - N/A   Partly Cloudy
7:00 AM 84.2 °F 89.6 °F 71.6 °F 66% 29.62 in 6.2 mi West 16.1 mph - N/A   Partly Cloudy
8:00 AM 86.0 °F 90.4 °F 69.8 °F 58% 29.62 in 6.2 mi WSW 17.3 mph - N/A   Partly Cloudy
9:00 AM 87.8 °F 92.6 °F 69.8 °F 55% 29.65 in 6.2 mi WSW 16.1 mph - N/A   Scattered Clouds
10:00 AM 89.6 °F 94.7 °F 69.8 °F 52% 29.62 in 6.2 mi WSW 15.0 mph - N/A   Scattered Clouds
10:28 AM 89.6 °F 94.7 °F 69.8 °F 52% 29.62 in 6.2 mi WSW 17.3 mph 28.8 mph N/A   Scattered Clouds
11:00 AM 89.6 °F 94.7 °F 69.8 °F 52% 29.62 in 6.2 mi WSW 18.4 mph - N/A   Scattered Clouds
11:15 AM 89.6 °F 94.7 °F 69.8 °F 52% 29.62 in 6.2 mi WSW 19.6 mph 31.1 mph N/A Rain Light Rain Showers
12:00 PM 91.4 °F 96.8 °F 69.8 °F 49% 29.62 in 6.2 mi WSW 12.7 mph - N/A   Partly Cloudy
12:14 PM 91.4 °F 96.8 °F 69.8 °F 49% 29.62 in 6.2 mi WSW 17.3 mph 28.8 mph N/A   Partly Cloudy
1:00 PM 91.4 °F 95.4 °F 68.0 °F 46% 29.62 in 6.2 mi WSW 18.4 mph - N/A   Scattered Clouds
1:43 PM 93.2 °F 98.8 °F 69.8 °F 46% 29.62 in 6.2 mi SW 17.3 mph 29.9 mph N/A   Scattered Clouds
2:00 PM 93.2 °F 98.8 °F 69.8 °F 46% 29.62 in 6.2 mi SW 12.7 mph - N/A   Scattered Clouds
2:07 PM 91.4 °F 95.4 °F 68.0 °F 46% 29.62 in 6.2 mi WSW 17.3 mph 28.8 mph N/A   Scattered Clouds
3:00 PM 86.0 °F 93.4 °F 73.4 °F 66% 29.62 in 6.2 mi West 21.9 mph 35.7 mph N/A Rain Light Rain Showers
3:20 PM 89.6 °F 98.2 °F 73.4 °F 59% 29.62 in 6.2 mi West 17.3 mph - N/A Rain Light Rain Showers
4:00 PM 91.4 °F 96.8 °F 69.8 °F 49% 29.62 in 6.2 mi West 19.6 mph 31.1 mph N/A   Scattered Clouds
5:00 PM 89.6 °F 94.7 °F 69.8 °F 52% 29.62 in 6.2 mi West 19.6 mph - N/A   Scattered Clouds
6:00 PM 89.6 °F 94.7 °F 69.8 °F 52% 29.62 in 6.2 mi WSW 13.8 mph - N/A   Scattered Clouds
7:00 PM 86.0 °F 91.8 °F 71.6 °F 62% 29.65 in 6.2 mi West 11.5 mph - N/A   Scattered Clouds
8:00 PM 84.2 °F 89.6 °F 71.6 °F 66% 29.65 in 6.2 mi SSW 4.6 mph - N/A   Scattered Clouds
9:00 PM 84.2 °F 89.6 °F 71.6 °F 66% 29.68 in 6.2 mi Variable 2.3 mph - N/A   Scattered Clouds